Flag for United Kingdom Weather past 2 weeks in Aberdeen, Scotland, United Kingdom

34 °F


Feels Like: 26 °F
Forecast: 38 / 45 °F
Wind: 9 mph from Southwest

Location: Aberdeen / Dyce

Current Time: Nov 28, 2015 at 8:14:26 AM

Latest Report: Nov 28, 2015 at 6:20 AM

Visibility: 10 mi

Pressure: 29.42 "Hg

Humidity: 81%

Dew point: 28 °F

Location of AberdeenLocation

Historic Weather in Aberdeen — Graph


Aberdeen temperature yesterday

Maximum temperature yesterday: 54 °F (at 12:50 AM)
Minimum temperature yesterday: 34 °F (at 11:20 PM)
Average temperature yesterday: 45 °F

Past Weeks' High & Low Weather Summary

High57 °F (Nov 15, 11:20 PM)100% (Nov 15, 3:50 AM)30.12 "Hg (Nov 15, 3:50 AM)
Low32 °F (Nov 21, 3:20 PM)57% (Nov 13, 12:50 PM)29.03 "Hg (Nov 16, 2:50 AM)
Average42 °F81%29.59 "Hg
* Reported Nov 13 6:20 AM — Nov 28 6:20 AM, Aberdeen, Weather by CustomWeather, © 2015

Note: Actual official high and low records may vary slightly from our data, if they occured in-between our weather recording intervals... More about our weather records


Aberdeen weather history for previous 24 hours

Time TempWeatherWind HumidityBarometerVisibility
6:20 AM
Sat, Nov 28
34 °FClear.9 mph81%29.42 "Hg10 mi
5:50 AM34 °FClear.7 mph81%29.45 "Hg10 mi
5:20 AM34 °FClear.8 mph81%29.45 "Hg10 mi
4:50 AM34 °FClear.6 mph75%29.45 "Hg10 mi
4:20 AM34 °FChilly.5 mph75%29.47 "HgN/A
3:50 AM34 °FClear.8 mph81%29.47 "Hg10 mi
3:20 AM34 °FChilly.7 mph75%29.47 "HgN/A
2:50 AM36 °FClear.9 mph75%29.47 "Hg10 mi
2:20 AM36 °FChilly.8 mph75%29.47 "HgN/A
1:50 AM36 °FClear.8 mph75%29.47 "Hg10 mi
1:20 AM36 °FChilly.10 mph75%29.45 "HgN/A
11:50 PM
Fri, Nov 27
36 °FClear.9 mph70%29.45 "Hg10 mi
11:20 PM34 °FClear.7 mph75%29.47 "Hg10 mi
10:50 PM36 °FClear.7 mph70%29.47 "Hg10 mi
10:20 PM36 °FClear.7 mph70%29.47 "Hg10 mi
9:50 PM36 °FClear.8 mph75%29.45 "Hg10 mi
9:20 PM36 °FPassing clouds.6 mph81%29.45 "HgN/A
8:50 PM36 °FPassing clouds.5 mph81%29.45 "HgN/A
8:20 PM36 °FClear.6 mph81%29.45 "Hg10 mi
7:50 PM37 °FPassing clouds.8 mph81%29.45 "HgN/A
7:20 PM39 °FClear.8 mph75%29.45 "Hg10 mi
6:50 PM39 °FPassing clouds.9 mph75%29.45 "HgN/A
6:20 PM39 °FPassing clouds.6 mph81%29.45 "HgN/A
5:20 PM41 °FClear.5 mph76%29.42 "Hg10 mi
4:50 PM41 °FClear.7 mph70%29.42 "Hg10 mi
4:20 PM41 °FClear.7 mph76%29.42 "Hg10 mi
3:50 PM41 °FPassing clouds.6 mph76%29.39 "HgN/A
3:20 PM41 °FScattered clouds.8 mph76%29.39 "HgN/A
2:50 PM41 °FScattered clouds.6 mph76%29.36 "HgN/A
2:20 PM43 °FLight rain. Broken clouds.13 mph71%29.39 "HgN/A
1:50 PM41 °FLight rain. Partly sunny.16 mph81%29.39 "HgN/A
1:20 PM41 °FLight rain. Broken clouds.15 mph87%29.39 "HgN/A
12:50 PM45 °FRain. Partly sunny.15 mph87%29.39 "Hg4 mi
12:20 PM46 °FRain. Partly sunny.14 mph93%29.36 "Hg4 mi
11:50 AM48 °FRain. Partly sunny.20 mph87%29.36 "Hg4 mi
11:20 AM52 °FScattered clouds.15 mph82%29.33 "HgN/A
10:50 AM52 °FScattered clouds.16 mph82%29.33 "HgN/A
10:20 AM52 °FPassing clouds.17 mph82%29.33 "HgN/A
9:50 AM52 °FPassing clouds.16 mph82%29.36 "HgN/A
9:20 AM52 °FPassing clouds.18 mph77%29.36 "HgN/A
8:50 AM52 °FPassing clouds.18 mph77%29.36 "HgN/A
8:20 AM52 °FPassing clouds.20 mph77%29.36 "HgN/A
Weather by CustomWeather, © 2015

See weather overviewHow to use our weather pages